| time (UTC) | temp F | wind direction | speed knots | gust knots | rain 1hr in | rain 24hr in | rain mn in | humidity % | barometer mb |
| 20260503203332 | 62 | 243 | 6.1 | 17.4 | 0.00 | 0.00 | 0.00 | 45 | 1010.8 |
| 20260503202329 | 63 | 249 | 7.0 | 17.4 | 0.00 | 0.00 | 0.00 | 43 | 1011.2 |
| 20260503201327 | 62 | 243 | 6.1 | 13.9 | 0.00 | 0.00 | 0.00 | 43 | 1011.2 |
| 20260503200326 | 62 | 248 | 8.7 | 16.5 | 0.00 | 0.00 | 0.00 | 42 | 1011.5 |
| 20260503195252 | 63 | 250 | 7.8 | 16.5 | 0.00 | 0.00 | 0.00 | 41 | 1011.5 |
| 20260503194250 | 63 | 230 | 6.1 | 14.8 | 0.00 | 0.00 | 0.00 | 43 | 1011.5 |
| 20260503193248 | 64 | 243 | 6.1 | 13.9 | 0.00 | 0.00 | 0.00 | 40 | 1011.9 |
| 20260503192242 | 63 | 244 | 6.1 | 15.6 | 0.00 | 0.00 | 0.00 | 42 | 1011.9 |
| 20260503191239 | 63 | 235 | 6.1 | 15.6 | 0.00 | 0.00 | 0.00 | 40 | 1011.9 |
| 20260503190133 | 63 | 240 | 6.1 | 14.8 | 0.00 | 0.00 | 0.00 | 39 | 1011.9 |
| 20260503185059 | 63 | 242 | 7.8 | 15.6 | 0.00 | 0.00 | 0.00 | 40 | 1012.2 |
| 20260503184057 | 62 | 235 | 6.1 | 15.6 | 0.00 | 0.00 | 0.00 | 40 | 1012.2 |
| 20260503183053 | 62 | 240 | 6.1 | 16.5 | 0.00 | 0.00 | 0.00 | 41 | 1012.5 |
| 20260503182017 | 62 | 253 | 8.7 | 16.5 | 0.00 | 0.00 | 0.00 | 41 | 1012.9 |
| 20260503181014 | 62 | 240 | 8.7 | 14.8 | 0.00 | 0.00 | 0.00 | 39 | 1012.9 |
| 20260503180013 | 62 | 249 | 7.0 | 16.5 | 0.00 | 0.00 | 0.00 | 39 | 1012.9 |
| 20260503175009 | 61 | 251 | 8.7 | 24.3 | 0.00 | 0.00 | 0.00 | 41 | 1013.2 |
| 20260503174009 | 60 | 250 | 11.3 | 24.3 | 0.00 | 0.00 | 0.00 | 38 | 1013.2 |
| 20260503173008 | 60 | 249 | 7.8 | 18.2 | 0.00 | 0.00 | 0.00 | 41 | 1013.2 |
| 20260503172007 | 61 | 247 | 9.6 | 15.6 | 0.00 | 0.00 | 0.00 | 39 | 1013.5 |
| 20260503170934 | 61 | 244 | 6.1 | 12.2 | 0.00 | 0.00 | 0.00 | 40 | 1013.5 |
| 20260503150845 | 56 | 256 | 5.2 | 15.6 | 0.00 | 0.00 | 0.00 | 49 | 1014.9 |
| 20260503130619 | 46 | 243 | 2.6 | 6.1 | 0.00 | 0.00 | 0.00 | 68 | 1015.6 |
| 20260503110600 | 37 | 215 | 0.0 | 0.0 | 0.00 | 0.00 | 0.00 | 75 | 1015.2 |
| 20260503090337 | 35 | 217 | 0.0 | 0.0 | 0.00 | 0.00 | 0.00 | 76 | 1015.9 |
| 20260503081258 | 34 | 217 | 0.0 | 0.0 | 0.00 | 0.00 | 0.00 | 76 | 1015.9 |
| 20260503080256 | 35 | 217 | 0.0 | 0.0 | 0.00 | 0.00 | 0.00 | 75 | 1015.9 |
| 20260503072249 | 35 | 217 | 0.0 | 0.0 | 0.00 | 0.00 | 0.00 | 75 | 1016.3 |
| 20260503071248 | 35 | 227 | 0.0 | 0.0 | 0.00 | 0.00 | 0.00 | 77 | 1016.3 |
| 20260503070246 | 34 | 221 | 0.0 | 0.0 | 0.00 | 0.00 | 0.00 | 80 | 1016.3 |
| 20260503060206 | 32 | 255 | 0.0 | 0.0 | 0.00 | 0.00 | 0.00 | 83 | 1016.6 |
| 20260503054203 | 32 | 255 | 0.0 | 0.0 | 0.00 | 0.00 | 0.00 | 81 | 1016.6 |
| 20260503053201 | 32 | 255 | 0.0 | 0.0 | 0.00 | 0.00 | 0.00 | 82 | 1016.6 |
| 20260503052057 | 32 | 255 | 0.0 | 0.0 | 0.00 | 0.00 | 0.00 | 85 | 1016.6 |
| 20260503051023 | 31 | 255 | 0.0 | 0.0 | 0.00 | 0.00 | 0.00 | 83 | 1016.6 |
| 20260503050013 | 31 | 255 | 0.0 | 0.0 | 0.00 | 0.00 | 0.00 | 82 | 1016.6 |
| 20260503044958 | 31 | 255 | 0.0 | 0.0 | 0.00 | 0.00 | 0.00 | 81 | 1016.9 |
| 20260503043956 | 31 | 255 | 0.0 | 0.0 | 0.00 | 0.00 | 0.00 | 81 | 1016.6 |
| 20260503042955 | 31 | 255 | 0.0 | 0.0 | 0.00 | 0.00 | 0.00 | 79 | 1016.6 |
| 20260503041953 | 31 | 255 | 0.0 | 0.0 | 0.00 | 0.00 | 0.00 | 78 | 1016.9 |
| 20260503040952 | 32 | 255 | 0.0 | 0.0 | 0.00 | 0.00 | 0.00 | 77 | 1016.9 |
| 20260503035950 | 33 | 255 | 0.0 | 0.0 | 0.00 | 0.00 | 0.00 | 77 | 1016.9 |
| 20260503034948 | 33 | 255 | 0.0 | 0.0 | 0.00 | 0.00 | 0.00 | 76 | 1016.9 |
| 20260503033947 | 33 | 255 | 0.0 | 0.0 | 0.00 | 0.00 | 0.00 | 74 | 1016.9 |
| 20260503032945 | 34 | 255 | 0.0 | 0.0 | 0.00 | 0.00 | 0.00 | 74 | 1016.9 |
| 20260503031944 | 35 | 255 | 0.0 | 0.0 | 0.00 | 0.00 | 0.00 | 73 | 1016.9 |
| 20260503030942 | 36 | 255 | 0.0 | 0.0 | 0.00 | 0.00 | 0.00 | 72 | 1016.9 |
| 20260503025941 | 37 | 255 | 0.0 | 0.0 | 0.00 | 0.00 | 0.00 | 71 | 1016.9 |
| 20260503024941 | 37 | 255 | 0.0 | 0.0 | 0.00 | 0.00 | 0.00 | 70 | 1016.9 |
| 20260503023939 | 38 | 255 | 0.0 | 0.0 | 0.00 | 0.00 | 0.00 | 68 | 1016.9 |
| 20260503022937 | 39 | 255 | 0.0 | 0.0 | 0.00 | 0.00 | 0.00 | 66 | 1016.9 |
| 20260503021936 | 41 | 255 | 0.0 | 0.0 | 0.00 | 0.00 | 0.00 | 63 | 1016.6 |
| 20260503020935 | 42 | 255 | 0.0 | 0.0 | 0.00 | 0.00 | 0.00 | 63 | 1016.6 |
| 20260503015933 | 42 | 255 | 0.0 | 0.0 | 0.00 | 0.00 | 0.00 | 63 | 1016.6 |
| 20260503014931 | 42 | 255 | 0.0 | 0.0 | 0.00 | 0.00 | 0.00 | 63 | 1016.9 |
| 20260503013930 | 42 | 255 | 0.0 | 0.0 | 0.00 | 0.00 | 0.00 | 65 | 1016.9 |
| 20260503012928 | 42 | 255 | 0.0 | 0.0 | 0.00 | 0.00 | 0.00 | 65 | 1016.6 |
| 20260503011926 | 43 | 255 | 0.0 | 0.0 | 0.00 | 0.00 | 0.00 | 63 | 1016.6 |
| 20260503010925 | 43 | 255 | 0.0 | 0.0 | 0.00 | 0.00 | 0.00 | 62 | 1016.6 |
| 20260503005923 | 44 | 255 | 0.0 | 0.0 | 0.00 | 0.00 | 0.00 | 63 | 1016.6 |
| 20260503004922 | 45 | 255 | 0.0 | 0.0 | 0.00 | 0.00 | 0.00 | 59 | 1016.6 |
| 20260503003920 | 46 | 255 | 0.0 | 0.0 | 0.00 | 0.00 | 0.00 | 55 | 1016.6 |
| 20260503002920 | 47 | 255 | 0.0 | 0.0 | 0.00 | 0.00 | 0.00 | 54 | 1016.6 |
| 20260503001918 | 47 | 243 | 0.0 | 0.0 | 0.00 | 0.00 | 0.00 | 53 | 1016.3 |
| 20260503000917 | 48 | 259 | 0.0 | 0.0 | 0.00 | 0.00 | 0.00 | 50 | 1016.3 |
| 20260502235844 | 48 | 264 | 0.0 | 0.0 | 0.00 | 0.00 | 0.00 | 48 | 1016.3 |
| 20260502234842 | 49 | 264 | 0.0 | 0.0 | 0.00 | 0.00 | 0.00 | 47 | 1016.3 |
| 20260502233841 | 49 | 284 | 0.0 | 3.5 | 0.00 | 0.00 | 0.00 | 47 | 1016.3 |
| 20260502232839 | 49 | 291 | 0.0 | 3.5 | 0.00 | 0.00 | 0.00 | 46 | 1016.3 |
| 20260502231806 | 49 | 261 | 0.0 | 4.3 | 0.00 | 0.00 | 0.00 | 48 | 1016.6 |
| 20260502230630 | 50 | 264 | 1.7 | 4.3 | 0.00 | 0.00 | 0.00 | 44 | 1016.6 |
| 20260502225630 | 49 | 281 | 0.9 | 3.5 | 0.00 | 0.00 | 0.00 | 48 | 1016.6 |
| 20260502224628 | 49 | 297 | 0.9 | 7.8 | 0.00 | 0.00 | 0.00 | 46 | 1016.6 |
| 20260502223626 | 50 | 266 | 1.7 | 7.8 | 0.00 | 0.00 | 0.00 | 45 | 1016.6 |
| 20260502222624 | 49 | 312 | 1.7 | 4.3 | 0.00 | 0.01 | 0.00 | 46 | 1016.6 |
| 20260502221623 | 49 | 268 | 0.9 | 7.8 | 0.00 | 0.03 | 0.00 | 46 | 1016.6 |
| 20260502220621 | 49 | 310 | 1.7 | 7.8 | 0.00 | 0.03 | 0.00 | 45 | 1016.6 |
| 20260502215620 | 49 | 293 | 1.7 | 7.0 | 0.00 | 0.03 | 0.00 | 45 | 1016.6 |
| 20260502214619 | 49 | 268 | 1.7 | 5.2 | 0.00 | 0.03 | 0.00 | 45 | 1016.6 |
| 20260502213618 | 49 | 266 | 1.7 | 5.2 | 0.00 | 0.03 | 0.00 | 46 | 1016.6 |
| 20260502212617 | 49 | 282 | 1.7 | 5.2 | 0.00 | 0.03 | 0.00 | 46 | 1016.6 |
| 20260502211616 | 48 | 303 | 0.9 | 7.8 | 0.00 | 0.03 | 0.00 | 44 | 1016.6 |
| 20260502210614 | 49 | 322 | 3.5 | 8.7 | 0.00 | 0.03 | 0.00 | 43 | 1016.6 |
| 20260502205614 | 48 | 272 | 1.7 | 8.7 | 0.00 | 0.03 | 0.00 | 47 | 1016.9 |
| 20260502204613 | 48 | 335 | 1.7 | 6.1 | 0.00 | 0.03 | 0.00 | 46 | 1016.9 |